Погода в Душанбе

Таджикистан     38˚34′28″N   68˚46′48″E
темп.,
°C
ветер,
м/с
пор.,
м/с
влажн.,
%
обл.,
%
осадки,
мм/ч
давл.,
гПа
погр.,
м
6 декабря, вс
вс623:00+4˚ссз118688 0.1 1028199
02:00+4˚ссв1183100 0.1 1028188
05:00+3˚св1180100 0.1 102823
08:00+3˚юз017977 0.0 102922
11:00+6˚зюз105863 0.0 1028328
14:00+9˚сз11470 0.0 1025552
17:00+7˚юз015516 0.0 102522
20:00+6˚ссв1155100 0.0 102524
7 декабря, пн
пн723:00+5˚ссв0154100 0.0 102323
02:00+5˚ююв0150100 0.0 102123
05:00+6˚з1147100 0.0 102122
08:00+6˚сз0148100 0.0 102323
11:00+9˚юз1144100 0.0 1024555
14:00+8˚юз1147100 0.0 1023754
17:00+6˚ю1267100 0.1 1024205
20:00+5˚зюз1369100 0.1 1026318
8 декабря, вт
вт823:00+3˚зсз1276100 0.1 1028378
02:00+2˚вюв1283100 0.0 1027148
05:00+3˚зюз1188100 0.0 102670
08:00+3˚з2388100 0.3 1026198
11:00+3˚сз1196100 2.1 1027122
14:00+3˚сз1196100 1.7 1028163
17:00+2˚зсз2296100 3.2 1030143
20:00+1˚зсз2396100 0.6 1032151
9 декабря, ср
ср923:00з2294100 1.3 1032135
02:00−1˚зсз119599 0.4 103378
05:00−1˚ссв009698 1.0 103262
08:00вюв119587 0.0 103398
11:00+2˚з118486 0.0 1032257
14:00+5˚з11686 0.0 1029360
17:00+3˚зсз11753 0.0 102922
20:00+2˚зсз11820 0.0 102923
10 декабря, чт
чт1023:00зюз118729 0.0 102922
02:00ююз019177 0.0 102922
05:00−1˚ю009154 0.0 102934
08:00−1˚ююв00907 0.0 103035
11:00+3˚ссв016519 0.0 1029256
14:00+6˚сз005073 0.0 1027247
17:00+3˚сз015982 0.0 102622
20:00+3˚з115497 0.0 102622